ELEKTRO-L 3

Last updated on Thu Nov 21 2024 00:02:31 GMT+0000 (Coordinated Universal Time)

1 44903U 19095A 24325.07688414 -.00000096 00000+0 00000+0 0 9992 2 44903 0.0989 68.2341 0002278 199.0782 256.0033 1.00271223 17945
UTC large
Height (km)
Speed (km/s)
/
Latitude / Longitude
Inclination (degrees)
Orbital Period (minutes)
Azimuth
Elevation
Range (km)
Doppler Factor

Next 0 passes for location: London (51.5072 / 0.1276)

Sorry there are no passes over London.